Location: Melque
(41.0517°N, 4.4694°W)
Time: 22:27:25
(UTC+00:00)

Cosmos 1697 Rocket - Pass Details

Date: 11 December 2025
Orbit: 831 x 843 km, 71.0° (Epoch: 14 January)

Event Time Altitude Azimuth Distance (km) Brightness Sun altitude
Rises 18:48:31 0° 236° (SW) 3,363 7.0 -21.7°
Reaches altitude 10° 18:51:19 10° 248° (WSW) 2,434 6.2 -22.2°
Maximum altitude 18:55:58 27° 305° (NW) 1,563 4.5 -23.0°
Drops below altitude 10° 19:00:40 10° 2° (N) 2,450 5.0 -23.9°
Enters shadow 19:01:07 - 5° (N) 2,587 5.1 -24.0°
